Weather in Vayda-Guba

Russia / Murmansk Oblast     69°56′53″N   31°56′45″E
temp.,
°C
wind,
m/s
gust,
m/s
humid.,
%
clouds,
%
prec.,
mm/h
press.,
hPa
HPBL,
m
6 may, thu
thu600:00+1ene3478100 0.1 1010580
03:00+2ene3378100 0.3 1010550
06:00+2ese4479100 0.3 1010577
09:00+2ese5577100 0.4 1010689
12:00+2ese6677100 0.1 1010715
15:00+2ese7774100 0.2 1011780
18:00+2e887298 0.0 1010931
21:00+1e8870100 0.1 1011997
7 may, fri
fri700:00+1e8974100 0.1 10101071
03:00+1e91079100 0.3 10091044
06:00+1e111278100 0.2 10081197
09:00+1e121473100 0.4 10071344
12:00+1e141678100 0.2 10051388
15:00+1e151779100 0.4 10041329
18:00+1e151896100 2.2 10021139
21:00+1e141798100 4.6 1000985
8 may, sat
sat800:00+1e131598100 1.1 999717
03:00+3ese101190100 1.9 9981005
06:00+2ese11138653 0.3 997886
09:00+2se8978100 0.3 998810
12:00+3sse688110 0.0 999708
15:00+4s787491 0.3 1001461
18:00+4s8107190 0.2 1002589
21:00+4sse710728 0.2 1003534
9 may, sun
sun900:00+3s7117423 0.0 1004559
03:00+3s68785 0.0 1004389
06:00+2s34775 0.0 1005201
09:00+3ese117559 0.0 1004144
12:00+3n227599 0.0 1003240
15:00+3nw5578100 0.0 1002460
18:00+4nw6881100 0.0 1000660
21:00+3nw91181100 0.0 998782
10 may, mon
mon1000:00+3wnw121483100 0.0 997940
03:00+3wnw121680100 0.0 9971076
06:00+3w13167684 0.0 9971266
09:00+3w151773100 0.1 9981365
12:00+3wsw1518788 0.1 10001187
15:00+4w15197863 0.1 10011187
18:00+4w14187671 0.1 10031015
21:00+4w13167899 0.1 10061115